Weather in Krenevo

Russia / Kostroma Oblast     58°33′16″N   41°20′58″E
temp.,
°C
wind,
m/s
gust,
m/s
humid.,
%
clouds,
%
prec.,
mm/h
press.,
hPa
HPBL,
m
9 may, sun
sun900:00+7e3894100 3.3 1005329
03:00+8ese41198100 8.1 1003542
06:00+9s3997100 1.8 1003573
09:00+9s2598100 2.9 1004312
12:00+7nnw51095100 2.6 1008427
15:00+5nnw71193100 3.8 1011551
18:00+6nnw51288100 0.7 1013878
21:00+6nnw51280100 0.8 1015664
10 may, mon
mon1000:00+3nnw3989100 0.0 1018256
03:00+2nnw4128978 0.0 1021348
06:00+3nnw411840 0.0 1024376
09:00+8n58570 0.0 10261093
12:00+11n45430 0.0 10271515
15:00+13n34405 0.0 10271601
18:00+12nne23525 0.0 1028566
21:00+7nnw116154 0.0 102910
11 may, tue
tue1100:00+6n11645 0.0 103010
03:00+5nne006815 0.0 103110
06:00+7ese116723 0.0 103142
09:00+12ese1153100 0.0 1032425
12:00+16e1245100 0.0 1031812
15:00+17e224476 0.0 1030959
18:00+17ene125714 0.0 1030245
21:00+11ese226818 0.0 103010
12 may, wed
wed1200:00+9ese227423 0.0 103111
03:00+8ene22757 0.0 103016
06:00+10e24745 0.0 1031115
09:00+15e34570 0.0 1030402
12:00+20ese34542 0.0 1029850
15:00+22se3552100 0.0 10281482
18:00+21ese24657 0.0 1027155
21:00+15e348220 0.0 102762
13 may, thu
thu1300:00+16e3880100 0.0 1026180
03:00+13ese35916 0.0 102688
06:00+14ese3108581 0.0 1026289
09:00+16se497561 0.0 1026411
12:00+20se495769 0.0 10251257
15:00+22sse595299 0.0 10241403
18:00+20sse4106192 0.0 1023488
21:00+16se387475 0.0 1022185